Location: Newark
(51.3318°N, 0.0053°E)
Time: 23:49:02
(UTC+00:00)

ITUPSAT 1 - Pass Details

Date: 08 July 2022
Orbit: 701 x 711 km, 98.6° (Epoch: 09 August)

Event Time Altitude Azimuth Distance (km) Brightness Sun altitude
Rises 22:42:19 0° 1° (N) 3,117 ? -14.1°
Reaches altitude 10° 22:46:08 10° 330° (NNW) 2,194 ? -14.3°
Maximum altitude 22:47:44 12° 311° (NW) 2,083 ? -14.3°
Drops below altitude 10° 22:49:20 10° 291° (WNW) 2,192 ? -14.4°
Sets 22:53:08 0° 260° (W) 3,108 ? -14.6°
